Location: Budapest
(47.4979°N, 19.0402°E)
Time: 06:09:00
(UTC+02:00)

ISS - Pass Details

Date: 16 October 2017
Orbit: 401 x 408 km, 51.6° (Epoch: 23 October)

Event Time Altitude Azimuth Distance (km) Brightness Sun altitude
Rises 19:07:05 0° 283° (WNW) 2,325 1.8 -13.1°
Reaches altitude 10° 19:10:06 10° 253° (WSW) 1,462 0.2 -13.6°
Maximum altitude 19:11:34 13° 226° (SW) 1,316 -0.6 -13.8°
Drops below altitude 10° 19:13:03 10° 199° (SSW) 1,459 -0.8 -14.1°
Sets 19:16:03 0° 168° (SSE) 2,315 -0.1 -14.6°
